User: anonymous   Login
Location: Unspecified
(0.0000°N, 0.0000°E)
Time: 20:30:29
(UTC+00:00)
Language:

UHF F/O F4 - Orbit

View from above orbital plane
View from above orbital plane
View from above satellite
View from above satellite

Ground track
Ground track

The orbit data is extracted from the following two-line orbital elements,

1 23467U 95003A   21136.74509515 -.00000016  00000-0  00000-0 0  9996
2 23467   9.8516  19.4336 0007141  60.0084 235.7579  1.00271192 96321
Epoch (UTC): 16 May 2021 17:52:56
Eccentricity: 0.0007141
inclination: 9.8516°
perigee height: 35756 km
apogee height: 35816 km
right ascension of ascending node: 19.4336°
argument of perigee: 60.0084°
revolutions per day: 1.00271192
mean anomaly at epoch: 235.7579°
orbit number at epoch: 9632

The dashed part of the orbit path shows where the satellite is in the earth's shadow,  

DLR